Location: Alphen
(52.1351°N, 4.6549°E)
Time: 01:13:03
(UTC+00:00)

Cosmos 2208 Rocket - Pass Details

Date: 27 January 2021
Orbit: 755 x 805 km, 74.0° (Epoch: 27 February)

Event Time Altitude Azimuth Distance (km) Brightness Sun altitude
Exits shadow 05:23:26 17° 222° (SW) 1,912 5.7 -19.1°
Maximum altitude 05:27:32 61° 299° (WNW) 905 4.0 -18.5°
Drops below altitude 10° 05:32:53 10° 20° (NNE) 2,369 6.7 -17.6°
Sets 05:35:19 0° 25° (NNE) 3,295 7.5 -17.3°
